Theta_e
312 310 313 314 314 315 315 319 320 318 319 321 321 321 322 321 320 319 321 322 323 325 324 324 330 335 337 338 338 340 339 339 339 340 339 339 337 336 336 336 336 334 334 334
308 310 314 314 315 314 315 316 316 319 319 319 319 318 319 321 320 318 320 322 322 322 324 324 325 331 332 335 337 338 338 337 338 338 338 339 339 337 336 336 335 336 336 335
309 313 314 315 315 315 314 314 316 320 321 319 319 319 319 319 319 319 320 321 322 322 322 322 323 324 330 329 330 334 336 337 337 337 336 337 338 338 336 335 336 336 334 334
312 313 314 314 316 315 317 316 316 320 321 322 319 319 313 313 316 316 317 319 321 322 321 321 321 322 324 330 332 331 331 332 334 336 336 335 335 335 336 336 335 334 334 333
311 313 314 315 315 314 315 316 317 318 316 315 316 317 314 312 313 314 312 317 319 320 320 320 320 321 323 324 329 335 336 336 335 336 335 334 333 334 335 336 335 333 333 333
311 312 312 313 314 314 314 315 315 317 315 318 314 317 315 313 312 312 312 315 317 319 320 320 320 321 322 323 324 332 333 335 336 336 335 334 332 333 332 333 333 333 332 330
307 310 313 313 314 314 315 318 318 319 319 319 311 316 316 312 310 310 310 313 316 317 318 320 319 319 320 321 321 322 325 332 332 331 330 331 331 332 332 332 331 330 329 328
304 304 311 312 312 313 314 315 315 316 316 313 312 315 313 310 312 313 314 315 315 317 317 319 319 319 319 319 320 320 320 324 330 331 330 331 330 330 330 330 330 329 328 327
309 309 310 312 313 312 313 314 312 312 310 308 310 310 309 309 310 311 312 313 314 315 316 317 318 319 319 319 321 322 319 319 320 325 329 329 330 329 329 329 328 327 325 322
311 314 311 313 314 314 313 312 316 313 317 316 309 311 311 310 309 309 309 311 313 314 314 317 318 318 319 321 321 319 317 316 316 316 319 322 326 327 327 326 325 324 322 318
310 312 312 313 314 313 315 314 314 313 312 312 310 308 304 307 307 308 308 311 312 312 313 316 318 319 319 320 319 318 317 316 316 316 315 316 318 319 318 317 317 314 313 312
310 313 314 313 314 312 313 314 314 313 312 308 307 310 308 308 308 310 311 312 312 312 312 312 313 314 316 318 318 318 317 317 317 315 315 314 314 314 314 313 312 312 312 313
311 311 313 313 313 312 314 314 314 311 310 306 309 309 306 306 309 312 312 312 312 312 312 311 311 311 312 312 314 317 317 316 315 314 315 315 315 315 316 314 315 315 315 314
309 307 310 310 312 312 313 315 314 313 313 309 306 309 309 306 307 310 312 312 312 312 312 312 312 311 311 312 312 313 316 316 315 315 315 315 315 315 316 318 317 317 314 311
306 305 308 309 310 311 311 314 314 314 313 311 311 310 311 307 308 309 311 311 311 311 312 312 312 312 311 311 311 312 313 315 315 315 315 315 316 317 318 317 315 311 309 309
302 306 299 303 308 310 311 312 314 314 314 313 312 312 310 311 310 310 312 312 312 311 311 312 312 312 312 312 311 312 312 313 314 314 314 314 313 312 311 310 310 309 309 310
299 298 295 300 306 310 309 309 312 312 312 313 315 313 312 312 311 311 311 311 311 311 311 311 311 311 312 311 311 312 312 311 312 312 312 311 311 310 310 310 309 309 309 308
299 297 298 298 309 312 311 308 310 312 312 311 312 311 311 312 312 312 312 311 310 310 310 310 310 310 311 311 312 312 312 312 311 311 311 311 310 310 310 309 309 309 308 308
297 298 298 304 308 310 309 307 310 310 311 309 309 310 311 311 310 309 309 309 310 310 310 310 310 310 310 310 311 312 313 312 311 311 311 311 310 310 310 309 308 308 307 307
300 301 302 304 309 310 309 305 306 307 308 309 308 307 307 307 307 305 309 310 309 308 308 308 308 309 310 310 311 312 313 312 311 311 311 311 309 309 308 308 307 307 306 305
302 301 300 299 302 307 306 304 307 307 304 309 311 312 311 309 308 310 308 308 308 308 309 308 308 308 310 310 310 312 313 313 312 311 311 310 309 308 308 307 307 306 305 304
305 303 302 305 305 307 305 306 306 304 304 308 311 312 312 311 310 309 309 309 309 308 307 307 307 308 310 310 311 311 312 313 312 311 310 310 309 308 308 307 306 305 304 303
307 304 307 306 304 306 305 304 303 304 305 306 307 312 312 311 310 309 309 309 309 308 307 306 308 309 309 309 310 312 313 312 311 310 309 309 308 307 306 306 305 304 303 303
299 301 302 303 303 302 304 305 304 304 303 305 307 307 310 310 310 311 310 309 309 308 308 307 307 309 310 311 312 312 311 311 310 309 308 308 307 307 306 304 304 303 303 302
296 297 297 298 298 301 301 299 299 301 302 304 306 306 306 309 311 310 310 310 308 308 308 307 307 307 308 309 310 310 310 309 309 308 307 307 306 305 304 304 303 303 302 301
295 296 296 297 297 297 297 297 297 300 302 304 304 306 308 309 310 309 309 308 307 308 308 308 307 306 307 307 307 307 307 307 306 306 306 305 305 304 303 302 303 303 303 302
Wind_Speed
7 5 2 1 1 2 6 9 8 5 11 8 8 5 8 16 19 21 27 23 22 21 17 17 19 25 28 26 28 29 27 29 29 30 31 30 30 31 27 25 23 22 19 17
6 1 4 6 4 2 2 6 5 3 8 4 5 7 12 14 17 23 22 31 25 24 25 23 21 23 23 27 28 28 28 27 32 38 36 35 35 34 29 29 29 26 24 21
5 2 5 4 4 2 3 5 5 3 7 2 3 4 11 13 24 28 25 28 31 30 25 22 25 26 28 28 26 29 30 28 26 27 28 27 33 34 32 32 30 27 26 22
1 2 3 4 2 2 1 2 7 9 8 4 6 4 4 7 13 13 27 27 28 29 28 30 24 29 31 31 30 28 26 27 27 27 26 28 28 33 35 33 30 29 27 25
2 2 4 1 2 3 2 2 4 4 4 4 5 1 6 2 8 16 15 30 33 33 30 29 30 27 32 32 34 35 33 30 29 29 29 29 27 25 27 29 31 27 28 28
1 2 3 3 3 3 3 5 7 6 3 1 6 7 4 5 7 4 12 32 37 38 35 30 28 23 30 31 31 32 32 32 31 30 31 28 28 28 27 26 28 29 27 25
4 3 2 4 1 3 2 3 3 2 3 3 4 4 8 6 8 7 9 17 34 37 36 35 30 26 25 24 28 32 33 34 32 30 30 31 30 29 29 27 28 28 26 26
3 5 8 6 6 6 5 8 3 5 3 4 5 6 6 10 14 20 18 8 16 30 33 35 34 28 27 25 27 31 32 30 31 32 32 33 34 34 32 31 28 26 25 23
4 5 2 3 3 7 4 3 4 4 3 3 3 6 8 6 3 3 8 9 7 7 13 27 34 28 27 24 25 27 28 28 28 27 28 28 30 34 31 28 24 21 20 15
3 3 3 4 3 1 3 5 3 2 5 4 4 4 5 3 7 4 4 9 8 8 6 9 16 29 26 23 24 27 25 25 23 23 23 21 19 18 19 20 21 22 23 21
4 2 1 2 6 8 3 2 2 3 4 4 1 5 5 7 7 10 9 13 11 9 7 6 9 17 23 25 25 25 25 24 22 20 20 19 18 17 15 14 15 16 15 16
3 3 6 10 0 3 4 6 7 4 5 2 3 5 3 1 6 10 10 9 7 4 4 6 6 9 12 19 24 24 24 23 23 22 19 17 18 17 16 15 12 13 14 16
4 3 3 2 3 2 5 5 4 5 3 6 4 4 1 1 5 11 15 12 10 8 7 7 5 2 8 14 18 22 23 22 22 21 20 21 20 20 21 17 13 17 21 22
7 3 4 1 3 3 4 6 9 7 4 4 5 3 4 5 6 7 9 8 7 6 5 3 3 3 5 8 13 21 24 23 24 23 23 22 22 20 21 22 21 25 24 23
1 4 2 8 10 7 5 6 11 11 8 8 5 7 7 6 5 4 5 2 5 10 12 11 8 7 8 10 12 16 20 23 23 22 22 23 24 22 22 23 20 19 19 18
3 2 1 5 3 10 14 10 7 11 10 15 7 13 3 10 6 4 6 9 11 13 17 17 17 16 17 15 14 16 20 23 24 24 25 25 23 20 18 18 18 17 16 17
1 1 2 4 5 5 8 15 14 9 9 14 15 18 2 7 9 11 14 14 11 11 12 16 22 22 20 17 14 15 18 20 21 21 21 20 20 19 18 16 15 15 14 15
2 1 0 3 2 3 4 4 12 14 10 13 10 4 13 17 23 26 21 13 10 11 13 15 17 18 18 18 20 17 16 19 21 20 21 20 20 18 17 16 15 15 15 16
3 2 2 1 2 5 3 1 4 6 5 7 12 12 16 13 10 9 7 4 5 8 11 13 14 16 20 20 19 21 19 20 22 22 22 21 21 19 18 17 16 16 16 16
3 1 1 2 3 3 1 8 8 3 3 5 5 7 5 9 3 4 5 4 7 10 13 17 17 19 18 18 18 24 23 21 22 22 21 20 20 19 17 16 16 16 16 16
2 2 3 3 3 5 7 13 9 1 4 11 4 6 6 3 4 1 3 5 9 11 12 13 13 12 12 16 19 22 25 22 19 19 19 19 20 19 16 17 17 17 17 17
5 4 3 3 2 5 16 6 4 9 20 11 4 2 2 2 0 2 4 7 9 10 9 7 6 8 10 10 13 18 23 20 17 17 18 18 19 18 18 16 16 17 17 17
2 3 1 5 3 3 3 2 11 17 14 19 12 4 1 1 1 2 4 4 6 7 8 4 3 4 8 12 14 14 20 22 18 17 18 17 17 17 15 15 15 16 17 18
3 0 2 2 2 4 3 4 5 15 20 19 14 7 6 6 5 4 2 1 3 4 5 5 0 0 0 2 7 10 17 17 15 14 16 15 15 15 15 15 15 15 15 17
4 2 2 4 5 2 8 7 12 13 19 21 14 11 7 8 8 6 4 3 2 4 6 6 6 3 4 5 7 9 11 12 12 13 13 13 13 14 15 15 14 13 13 15
4 4 3 4 2 3 8 14 17 14 12 18 20 15 5 7 7 6 6 5 3 3 3 5 6 6 6 6 6 6 7 7 8 9 11 12 14 14 15 14 13 13 11 12
Wind_Direction
9 57 89 341 28 63 149 137 145 152 180 165 182 197 256 256 276 267 243 226 218 217 220 214 209 212 215 213 213 212 217 225 221 218 222 216 217 221 223 231 238 239 244 243
15 40 329 315 301 242 217 184 158 189 172 160 145 232 234 220 249 258 256 226 217 218 223 223 221 215 213 217 212 213 223 226 224 227 226 225 218 220 227 231 233 233 231 228
128 255 304 1 334 298 219 164 189 161 122 51 69 245 211 222 233 250 242 227 222 222 223 223 225 223 219 217 218 224 226 227 226 223 224 227 232 226 222 226 231 231 229 232
321 311 6 335 299 134 220 261 174 145 134 199 170 266 259 198 233 223 231 236 230 222 233 241 230 227 224 224 223 227 228 230 228 231 228 234 231 226 222 230 230 234 234 235
231 29 34 319 315 338 226 36 117 127 108 112 180 258 267 229 232 232 228 235 235 234 236 239 236 231 227 224 226 230 232 232 232 230 233 237 240 237 238 232 229 231 227 232
263 303 196 229 298 334 152 59 52 37 49 225 213 188 272 216 205 226 244 236 235 233 233 232 234 236 232 227 230 231 233 233 234 231 231 234 237 236 231 229 222 220 224 228
334 238 271 231 207 342 87 62 131 197 202 217 169 162 248 258 250 217 255 260 230 232 231 227 226 224 222 231 231 232 233 234 235 237 241 241 239 237 237 233 227 221 219 224
154 312 183 188 187 179 183 154 157 177 205 200 148 212 246 239 250 259 264 268 230 230 232 228 229 231 228 229 243 233 233 234 237 239 240 239 239 236 237 239 233 232 231 229
170 264 235 224 179 148 204 176 168 96 35 43 218 286 301 259 266 244 180 148 146 169 216 237 234 232 235 232 234 235 235 231 234 237 242 245 240 235 235 233 227 232 242 239
226 270 232 184 183 17 178 154 119 92 185 217 266 269 232 257 214 159 129 137 152 172 188 214 224 225 220 217 219 224 230 237 234 234 235 235 236 232 225 224 223 229 233 230
166 229 228 132 214 180 160 174 171 143 161 189 214 255 215 246 202 177 182 156 155 158 164 169 187 202 204 211 218 223 226 226 228 231 230 226 222 217 212 218 225 225 229 243
212 199 241 214 48 317 232 198 184 170 206 200 152 275 308 247 126 150 150 141 140 162 185 191 185 180 199 220 230 229 226 227 232 229 219 217 216 211 208 206 219 238 251 269
175 239 251 209 225 195 250 186 156 108 82 203 162 244 208 306 154 155 142 140 143 140 130 118 134 181 236 239 231 228 228 229 224 220 220 219 217 226 225 224 220 252 261 252
164 209 221 276 303 337 212 197 190 163 182 167 221 239 194 227 190 185 168 167 183 183 188 200 220 231 260 254 236 230 230 229 227 229 230 226 216 213 227 250 244 255 255 253
71 218 289 283 259 249 237 212 196 200 189 190 187 215 243 202 203 184 133 54 270 247 238 234 243 261 263 266 263 243 233 232 232 233 230 226 232 234 238 242 242 239 240 247
355 250 228 271 289 235 247 214 218 226 220 237 270 269 274 277 186 180 272 295 280 259 241 242 246 252 260 262 264 255 240 232 233 235 235 234 231 227 225 224 227 233 243 255
101 34 8 280 343 261 260 237 206 205 208 214 226 242 1 277 250 243 263 270 258 260 253 246 245 249 254 257 264 273 256 236 225 225 225 221 218 218 221 226 233 243 257 268
146 87 42 270 299 241 288 293 209 208 231 223 239 220 217 235 253 271 282 279 271 242 251 250 251 256 259 256 248 252 245 233 224 218 219 220 220 222 225 231 240 249 259 269
156 94 314 244 295 290 325 165 144 173 263 233 230 243 238 236 249 246 238 214 239 260 269 269 264 264 261 250 241 240 235 229 222 219 220 223 223 225 230 236 245 254 262 272
117 137 298 334 286 218 325 330 336 155 315 340 288 248 192 152 169 252 198 281 292 294 292 285 276 266 259 245 231 233 232 226 224 220 220 224 227 230 235 241 249 259 270 278
198 221 201 234 277 293 340 314 320 142 283 327 19 74 114 143 187 155 305 309 313 313 304 289 280 270 250 230 229 230 229 229 231 224 224 225 228 231 236 244 253 262 268 270
194 171 206 204 248 277 0 21 55 303 315 321 329 21 76 103 6 319 322 317 318 321 319 303 279 254 241 235 224 230 229 229 228 223 223 226 229 232 238 246 256 264 274 275
232 207 215 198 224 167 67 94 359 9 351 353 344 321 339 286 271 282 301 321 329 332 342 329 313 284 247 235 232 228 225 222 221 225 225 224 229 234 241 250 260 268 273 274
280 161 233 5 107 326 236 185 283 342 354 356 354 321 297 287 257 241 243 11 10 4 12 20 346 145 16 184 203 213 218 216 222 226 226 228 231 237 244 251 260 270 279 281
225 356 213 268 305 38 142 25 357 326 323 344 346 340 302 276 251 231 215 189 101 61 51 47 60 95 155 165 176 191 211 223 225 223 227 230 234 240 244 251 263 274 279 281
197 203 167 236 181 271 283 318 330 317 312 309 338 340 291 277 245 220 200 181 172 143 91 78 72 77 98 122 146 167 183 198 212 223 229 236 241 244 247 254 263 269 277 282